KMMVKDLS

Guest
Details From KMMV - MC MINNVILLE MUNI
To KDLS - COLUMBIA GORGE RGNL THE DALLES MUNI
Flight Number -
Tags generated
Created
Modified
Stats Distance 87 nm / 161 km
Max Altitude 8,200 ft / 2,499 m
Waypoints 3
Social Downloads 0
Likes 0
Share VATSIM

Download

Looking for another format? Having issues loading an existing format? Contact us
Advertisement - Login to hide

Notes

Basic altitude profile: - Ascent Rate: 500ft/min - Ascent Speed: 50kts - Cruise Altitude: 5000ft - Cruise Speed: 50kts - Descent Rate: 500ft/min - Descent Speed: 50kts Options: - Use NATs: no - Use PACOTS: no - Use low airways: yes - Use high airways: no

Route

KMMV GLARA KDLS

ID Type Via Altitude Latitude Longitude Leg Dist Tot Dist Heading (true) Name
O KMMV APT - 0 ft / 0 m 45.19435˚ -123.13567˚ - 0 nm - MC MINNVILLE MUNI
GLARA FIX - 8,200 ft / 2,499 m 45.27789˚ -122.60315˚ 23 nm 23 nm 77° / 78° -
O KDLS APT - 0 ft / 0 m 45.61943˚ -121.16830˚ 63 nm 86 nm 71° / 72° COLUMBIA GORGE RGNL THE DALLES MUNI

Altitude Profile

Advertisement - Login to hide

KMMV

Details ICAO KMMV (MMV)
Name MC MINNVILLE MUNI
Region United States
Timezone America/Los_Angeles (UTC-7.0)
Stats Elevation 163 ft / 50 m (AMSL)
Location 45.194348° -123.135667°
Runways 2
Magnetic Variation 15.236° E

METAR

KMMV 210653Z AUTO 23005KT 10SM CLR 09/08 A3006 RMK AO2 SLP177 T00890083

Decode

TAF

Not found

Departure Runways

ID Width Length Bearing (true) Bearing (mag) Surface Threshold Offset Overrun Length
04 151 ft / 46 m 5,411 ft / 1,649 m 57.10° 41.86° Asphalt 0 ft / 0 m 1,001 ft / 305 m
17 151 ft / 46 m 4,680 ft / 1,427 m 185.87° 170.63° Asphalt 0 ft / 0 m 0 ft / 0 m
22 151 ft / 46 m 5,411 ft / 1,649 m 237.12° 221.88° Asphalt 0 ft / 0 m 0 ft / 0 m
35 151 ft / 46 m 4,680 ft / 1,427 m 5.87° 350.63° Asphalt 0 ft / 0 m 0 ft / 0 m

KDLS

Details ICAO KDLS
Name COLUMBIA GORGE RGNL THE DALLES MUNI
Region United States
Timezone America/Los_Angeles (UTC-7.0)
Stats Elevation 247 ft / 75 m (AMSL)
Location 45.619429° -121.168304°
Runways 2
Magnetic Variation 14.978° E

METAR

KDLS 210653Z AUTO 31010G20KT 10SM BKN120 18/07 A2994 RMK AO2 SLP137 T01830067

Decode

TAF

KDLS 210701Z 2107/2206 31011KT P6SM BKN120 FM211500 30011KT P6SM SCT150 FM212100 33008G15KT P6SM SCT080 BKN100

Decode

Destination Runways

ID Width Length Bearing (true) Bearing (mag) Surface Threshold Offset Overrun Length
07 100 ft / 30 m 4,635 ft / 1,413 m 87.98° 73.00° Asphalt 440 ft / 134 m 0 ft / 0 m
12 100 ft / 30 m 5,095 ft / 1,553 m 144.67° 129.69° Asphalt 200 ft / 61 m 0 ft / 0 m
25 100 ft / 30 m 4,635 ft / 1,413 m 267.99° 253.01° Asphalt 196 ft / 60 m 0 ft / 0 m
30 100 ft / 30 m 5,095 ft / 1,553 m 324.68° 309.70° Asphalt 0 ft / 0 m 0 ft / 0 m

Popular Alternatives